Regional Weather Roundup
Issued by NWS Green Bay, WI

Home | Current Version | Previous Version | Text Only | Print | Product List | Glossary On
Versions: 1 2 3 4 5 6 7 8 9 10 11 12 13 14 15 16 17 18 19 20 21 22 23 24 25 26 27 28 29 30 31 32 33 34 35 36 37 38 39 40 41 42 43 44 45 46 47 48 49 50
134
ASUS43 KGRB 221811
RWRGRB

NORTH-CENTRAL AND NORTHEAST WISCONSIN REGIONAL WEATHER ROUNDUP
NATIONAL WEATHER SERVICE GREEN BAY WI
1200 PM CST WED JAN 22 2020

WIZ005-009-010>012-018-019-221900-
NORTH CENTRAL WISCONSIN

CITY           SKY/WX    TMP DP  RH WIND       PRES   REMARKS
IRONWOOD       CLOUDY    30  26  85 SW9       29.87S
MANITOWISH WTR CLOUDY    28  28 100 SW10      29.87F FOG
ARBOR VITAE    CLOUDY    32  30  92 SW8G16    29.88F
EAGLE RIVER    CLOUDY    28  24  84 SW9       29.89S
LAND O LAKES   CLOUDY    28  26  91 SW9       29.89F FOG
RHINELANDER    LGT SNOW  27  23  85 SW13      29.90F FOG
PHILLIPS       CLOUDY    29  27  92 SW13      29.88F
ANTIGO         LGT SNOW  28  26  92 SW16      29.94F
TOMAHAWK       LGT SNOW  29  25  86 CALM      29.92F
MERRILL        LGT SNOW  28  26  91 SW6       29.95F
$$

WIZ013-073-221900-
NORTHEAST WISCONSIN

CITY           SKY/WX    TMP DP  RH WIND       PRES   REMARKS
IRON MOUNTAIN  MIX PCPN  27  23  85 S7        29.92F FOG
MARINETTE      FLURRIES  29  24  82 SW14      30.02F
OCONTO         PTSUNNY   30  22  72 SW15      30.03F
$$

WIZ017-030-035>037-045-221900-
CENTRAL WISCONSIN

CITY           SKY/WX    TMP DP  RH WIND       PRES   REMARKS
MEDFORD        LGT SNOW  28  26  94 S14       29.92F VSB 1
WAUSAU         LGT SNOW  28  25  88 S14       29.95F VSB 3/4
MOSINEE        LGT SNOW  28  25  86 S14       29.98F
MARSHFIELD     LGT SNOW  29  26  89 S12       29.95F FOG
WISC RAPIDS    MIX PCPN  30  23  75 S14       30.01F
STEVENS POINT  MIX PCPN  28  24  84 S10       30.00F
WAUPACA        FAIR      33  23  67 S12G17    30.03F
SHAWANO        CLOUDY    32  24  71 SW10G16   30.00F
CLINTONVILLE   PTSUNNY   30  22  70 SW12      30.02F
WAUTOMA        FAIR      32  23  69 MISG        N/A
$$

WIZ038-039-048-051-221900-
FOX VALLEY

CITY           SKY/WX    TMP DP  RH WIND       PRES   REMARKS
NWS GREEN BAY  FAIR      29  20  69 SW15G25   30.05F
APPLETON       PTSUNNY   28  18  64 SW17      30.02F
OSHKOSH        FAIR      28  21  75 S15       30.06F
FOND DU LAC    FAIR      30  22  72 SW13      30.07F
$$

WIZ022-050-052-221900-
EAST CENTRAL WISCONSIN

CITY           SKY/WX    TMP DP  RH WIND       PRES   REMARKS
EPHRAIM        CLOUDY    30  22  72 SW12G18   30.01S
WASHINGTON ISL LGT SNOW  28  24  85 SW14      30.02F
STURGEON BAY   FAIR      30  23  75 SW18G24   30.03F
MANITOWOC      FAIR      34  23  64 SW12      30.07F
SHEBOYGAN      FAIR      31  22  69 SW13      30.08F
$$

LMZ563-521-522-541>543-221900-
LAKESHORE

STATION/POSITION TIME  TEMP    WIND        PRES    VSBY  WAVE
                       AIR SEA DIR/SP/G                  HT/PER
                 (UTC) (F)     (DEG/KT/KT) (MB)    (MI)  (FT/S)
SHEBOYGAN LKSHOR 1800   31     210/ 18/ 21   N/A
KEWAUNEE LKSHORE 1730   32                 1017.7F
SISTER BAY LKSHO 1757   32     230/ 13/ 16   N/A
MENOMINEE LKSHOR 1730   27 35              1016.5F
$$




USA.gov is the U.S. government's official web portal to all federal, state and local government web resources and services.